This is the latest recevied weather packets stored in our database for station/object KB3VSP. If no packets are shown the sender has not sent any weather packets the latest 10 day(s).
| Time | Temp. | Humidity | Pressure | Rain* | Wind** | Luminosity | Snow |
|---|---|---|---|---|---|---|---|
| 1777988572 | 19.44° C | 64% | 1008.7 hPa | 0 mm | - | 127 W/m² | - |
| 1777988268 | 19.44° C | 64% | 1008.6 hPa | 0 mm | - | 108 W/m² | - |
| 1777987964 | 19.44° C | 64% | 1008.7 hPa | 0 mm | - | 114 W/m² | - |
| 1777987660 | 19.44° C | 64% | 1008.7 hPa | 0 mm | - | 118 W/m² | - |
| 1777987358 | 19.44° C | 65% | 1008.9 hPa | 0 mm | - | 104 W/m² | - |
| 1777987056 | 18.89° C | 65% | 1008.6 hPa | 0 mm | - | 103 W/m² | - |
| 1777986753 | 18.89° C | 65% | 1008.8 hPa | 0 mm | - | 100 W/m² | - |
| 1777986451 | 18.89° C | 66% | 1008.8 hPa | 0 mm | - | 98 W/m² | - |
| 1777986149 | 18.89° C | 66% | 1008.8 hPa | 0 mm | - | 104 W/m² | - |
| 1777985845 | 18.89° C | 65% | 1008.9 hPa | 0 mm | - | 97 W/m² | - |
| 1777985543 | 18.89° C | 66% | 1008.9 hPa | 0 mm | - | 106 W/m² | - |
| 1777985239 | 18.89° C | 66% | 1008.9 hPa | 0 mm | - | 98 W/m² | - |
| 1777984936 | 18.33° C | 67% | 1008.8 hPa | 0 mm | - | 98 W/m² | - |
| 1777984632 | 18.33° C | 68% | 1008.7 hPa | 0 mm | - | 71 W/m² | - |
| 1777984328 | 18.33° C | 68% | 1008.8 hPa | 0 mm | - | 47 W/m² | - |
| 1777984024 | 18.33° C | 68% | 1008.9 hPa | 0 mm | - | 48 W/m² | - |
| 1777983721 | 17.78° C | 68% | 1008.5 hPa | 0 mm | - | 52 W/m² | - |
| 1777983413 | 17.78° C | 69% | 1008.7 hPa | 0 mm | - | 53 W/m² | - |
| 1777983109 | 17.78° C | 70% | 1008.9 hPa | 0 mm | - | 64 W/m² | - |
| 1777982806 | 17.22° C | 70% | 1008.8 hPa | 0 mm | - | 31 W/m² | - |
| 1777982501 | 17.22° C | 70% | 1008.7 hPa | 0 mm | - | 23 W/m² | - |
| 1777982196 | 17.22° C | 71% | 1008.9 hPa | 0 mm | - | 15 W/m² | - |
| 1777981894 | 17.22° C | 71% | 1008.6 hPa | 0 mm | - | 14 W/m² | - |
| 1777981591 | 17.22° C | 71% | 1008.7 hPa | 0 mm | - | 19 W/m² | - |
| 1777981287 | 17.22° C | 71% | 1008.7 hPa | 0 mm | - | 35 W/m² | - |
* Rain latest hour (hover to see other rain measurements)
** Current wind speed in m/s (hover to see current wind gust speed)